Weather History for MRLB - April, 2012

Change the Weather History Date:

Saturday, April 21, 2012

  Actual Average Record
Temperature  
Mean Temperature 82 °F -  
Max Temperature 92 °F 91 °F 98 °F (1998)
Min Temperature 72 °F 76 °F 69 °F (2002)
Cooling Degree Days 17    
Growing Degree Days 32 (Base 50)    
Moisture  
Dew Point 72 °F    
Average Humidity 65    
Maximum Humidity 94    
Minimum Humidity 40    
Precipitation  
Precipitation 0.00 in - - ()
Sea Level Pressure  
Sea Level Pressure 29.80 in    
Wind  
Wind Speed 5 mph ()    
Max Wind Speed 15 mph    
Max Gust Speed -    
Visibility 7.2 miles    
Events Fog , Rain    
Averages and records for this station are not official NWS values.
T = Trace of Precipitation, MM = Missing Value Source: Averaged Metar Reports

Daily Weather History Graph

Daily Weather History Graph

Search for Another Location

Airport or City:

Trip Planner

Search our weather history database for the weather conditions in past years. The results will help you decide how hot, cold, wet, or windy it might be!

Date:

Astronomy

Apr. 21, 2012 Rise Set
Actual Time 5:28 AM CST 5:53 PM CST
Civil Twilight 5:06 AM CST 6:15 PM CST
Nautical Twilight 4:41 AM CST 6:40 PM CST
Astronomical Twilight 4:16 AM CST 7:05 PM CST
Moon 5:32 AM CST (4/21) 6:20 PM CST (4/21)
Length of Visible Light 13h 08m
Length of Day
12h 25m
New Moon, 0% of the Moon is Illuminated
Apr 21
New Moon
Apr 29
First Quarter
May 5
Full
May 12
Last Quarter
May 20
New

Hourly Weather History & Observations

Time (CST) Temp. Heat Index Dew Point Humidity Pressure Visibility Wind Dir Wind Speed Gust Speed Precip Events Conditions
6:00 AM 73.4 °F - 71.6 °F 94% 29.81 in 5.0 mi North 3.5 mph - N/A Fog Fog
7:00 AM 77.0 °F - 71.6 °F 83% 29.83 in - NE 3.5 mph - N/A   Clear
8:00 AM 82.4 °F 87.2 °F 71.6 °F 70% 29.86 in - Calm Calm - N/A   Clear
9:00 AM 84.2 °F 90.9 °F 73.4 °F 70% 29.88 in 6.2 mi SSE 5.8 mph - N/A   Partly Cloudy
10:00 AM 86.0 °F 93.4 °F 73.4 °F 66% 29.87 in 6.2 mi South 5.8 mph - N/A   Scattered Clouds
11:00 AM 87.8 °F 92.6 °F 69.8 °F 55% 29.86 in 6.2 mi Calm Calm - N/A   Scattered Clouds
12:00 PM 90 °F - 69 °F 40% 29.83 in 12 mi Calm Calm - -   Partly Cloudy
12:00 PM 89.6 °F 93.4 °F 68.0 °F 49% 29.83 in 6.2 mi Calm Calm - N/A   Scattered Clouds
1:00 PM 91.4 °F 100.1 °F 73.4 °F 55% 29.79 in 6.2 mi WSW 11.5 mph - N/A   Scattered Clouds
2:00 PM 87.8 °F 95.6 °F 73.4 °F 62% 29.76 in 6.2 mi WSW 15.0 mph - N/A   Scattered Clouds
3:00 PM 87 °F - 72 °F 52% 29.72 in 12 mi West 1.2 mph - -   Mostly Cloudy
3:00 PM 87.8 °F 93.8 °F 71.6 °F 58% 29.75 in 6.2 mi West 15.0 mph - N/A   Mostly Cloudy
4:00 PM 86.0 °F 91.8 °F 71.6 °F 62% 29.75 in 6.2 mi West 11.5 mph - N/A   Partly Cloudy
5:00 PM 86.0 °F 91.8 °F 71.6 °F 62% 29.75 in - West 10.4 mph - N/A   Scattered Clouds
5:01 PM 86.0 °F 91.8 °F 71.6 °F 62% 29.75 in 6.2 mi West 10.4 mph - N/A   Scattered Clouds
6:00 PM 84 °F - 72 °F 59% 29.73 in 12 mi WSW 4.6 mph - -   Overcast
6:00 PM 84.2 °F 89.6 °F 71.6 °F 66% 29.78 in 6.2 mi WSW 4.6 mph - N/A   Mostly Cloudy
7:00 PM 78.8 °F - 71.6 °F 78% 29.80 in 6.2 mi SE 8.1 mph - N/A   Scattered Clouds
7:30 PM 78.8 °F - 73.4 °F 83% 29.83 in 6.2 mi SE 5.8 mph - N/A Rain Light Rain
8:00 PM 78.8 °F - 73.4 °F 83% 29.85 in 6.2 mi East 3.5 mph - N/A Rain Light Rain